This demonstration page uses our WeatherBlox Daily Observations layout. Learn more.

Left ArrowRight Arrow

41.55636, -103.73856

Hourly Observations for February 13, 2020

Temp ( °F °C ) Dew Point ( °F °C ) Humidity (%) Winds ( mph kmh ) Pressure ( in mb ) Visibility ( mi km ) Precip ( " mm )
12:26 am 00:26 Cloudy with Light Snow 17 -8.3 15 -9.4 92 92 N N/A 30.38 1029 2 3 0.00 0.00
12:51 am 00:51 Cloudy with Light Snow 18 -8 16 -9 93 93 ESE 3 6 30.37 1028 2 3 0.00 0.00
12:53 am 00:53 Cloudy with Light Snow 17 -8.3 15 -9.4 92 92 ESE 5 7 30.24 1024 2 3 0.00 0.00
1:02 am 01:02 Cloudy with Light Snow 17 -8.3 15 -9.4 92 92 ESE 5 7 30.37 1028 2 3 0.00 0.00
1:17 am 01:17 Cloudy with Light Snow 17 -8.3 15 -9.4 92 92 ESE 3 6 30.36 1028 3 4 0.00 0.00
1:43 am 01:43 Cloudy with Light Snow 17 -8.3 15 -9.4 92 92 SSE 3 6 30.36 1028 2 3 0.01 0.25
1:51 am 01:51 Cloudy with Light Snow 18 -8 16 -9 93 93 undefined N/A 30.35 1028 3 4 0.01 0.25
1:53 am 01:53 Cloudy with Light Snow 17 -8.3 15 -9.4 92 92 undefined N/A 30.24 1024 3 5 0.01 0.25
2:53 am 02:53 Cloudy with Light Snow 17 -8.3 14 -10 88 88 N N/A 30.24 1024 4 6 0.00 0.00
3:53 am 03:53 Cloudy with Light Snow 17 -8.3 14 -10 88 88 E 5 7 30.24 1024 6 10 0.00 0.00
4:53 am 04:53 Cloudy with Light Snow 16 -8.9 13 -10.6 88 88 E 7 11 30.25 1024 3 4 0.00 0.00
5:01 am 05:01 Cloudy with Light Snow 16 -8.9 13 -10.6 88 88 E 7 11 30.36 1028 4 6 0.00 0.00
5:13 am 05:13 Cloudy with Light Snow 16 -8.9 14 -10 92 92 E 6 9 30.37 1028 2 3 0.00 0.00
5:35 am 05:35 Cloudy with Light Snow 16 -8.9 14 -10 92 92 E 6 9 30.37 1028 2 3 0.00 0.00
5:42 am 05:42 Cloudy with Light Snow 16 -8.9 14 -10 92 92 E 7 11 30.37 1028 2 3 0.00 0.00
5:50 am 05:50 Cloudy with Light Snow 16 -9 14 -10 93 93 E 6 9 30.37 1029 2 2 0.01 0.25
5:53 am 05:53 Cloudy with Light Snow 16 -8.9 14 -10 92 92 E 7 11 30.27 1025 2 2 0.01 0.25
6:42 am 06:42 Cloudy with Light Snow 16 -8.9 13 -10.6 88 88 ESE 8 13 30.38 1029 3 4 0.01 0.25
6:50 am 06:50 Cloudy with Light Snow 16 -9 12 -11 86 86 ESE 8 13 30.38 1029 3 5 0.01 0.25
6:53 am 06:53 Cloudy with Light Snow 15 -9.4 12 -11.1 88 88 ESE 8 13 30.28 1025 3 5 0.01 0.25
7:44 am 07:44 Cloudy with Light Snow 13 -10.6 10 -12.2 88 88 ESE 9 15 30.42 1030 3 5 0.00 0.00
7:53 am 07:53 Cloudy with Light Snow 13 -10.6 10 -12.2 88 88 E 9 15 30.30 1026 3 5 0.00 0.00
8:51 am 08:51 Cloudy 16 -9 10 -12 79 79 E 12 19 30.41 1030 10 16 0.00 0.00
8:53 am 08:53 Cloudy 15 -9.4 11 -11.7 84 84 E 12 19 30.31 1026 10 16 0.00 0.00
9:53 am 09:53 Sunny 18 -7.8 13 -10.6 81 81 ESE 8 13 30.31 1026 10 16 N/A
10:53 am 10:53 Cloudy 20 -6.7 15 -9.4 81 81 SE 8 13 30.31 1026 10 16 N/A
11:39 am 11:39 Cloudy 21 -6.1 16 -8.9 81 81 ESE 8 13 30.35 1028 9 14 N/A
11:53 am 11:53 Cloudy 21 -6.1 16 -8.9 81 81 ESE 9 15 30.28 1026 10 16 N/A
12:44 pm 12:44 Partly Cloudy 24 -4.4 19 -7.2 81 81 E 9 15 30.29 1026 10 16 N/A
12:53 pm 12:53 Mostly Sunny 24 -4.4 19 -7.2 81 81 ESE 10 17 30.24 1024 10 16 N/A
1:53 pm 13:53 Sunny 27 -2.8 20 -6.7 75 75 SE 8 13 30.21 1023 10 16 N/A
2:53 pm 14:53 Mostly Sunny 28 -2.2 20 -6.7 72 72 SE 6 9 30.20 1023 10 16 N/A
3:08 pm 15:08 Mostly Cloudy 29 -1.7 20 -6.7 69 69 E 5 7 30.22 1023 10 16 N/A
3:31 pm 15:31 Partly Cloudy 30 -1.1 20 -6.7 66 66 SE 5 7 30.21 1023 10 16 N/A
3:53 pm 15:53 Mostly Sunny 30 -1.1 20 -6.7 66 66 VRB 6 9 30.19 1022 10 16 N/A
4:53 pm 16:53 Mostly Sunny 28 -2.2 20 -6.7 72 72 ESE 5 7 30.19 1022 10 16 N/A
5:53 pm 17:53 Clear 22 -5.6 18 -7.8 85 85 E 8 13 30.19 1022 10 16 N/A
6:53 pm 18:53 Clear 19 -7.2 16 -8.9 88 88 ESE 8 13 30.21 1023 10 16 N/A
7:53 pm 19:53 Clear 21 -6.1 17 -8.3 85 85 SE 8 13 30.20 1023 10 16 N/A
8:53 pm 20:53 Clear 20 -6.7 16 -8.9 85 85 SE 7 11 30.18 1022 10 16 N/A
9:53 pm 21:53 Clear 22 -5.6 16 -8.9 78 78 SE 6 9 30.16 1021 10 16 N/A
10:53 pm 22:53 Clear 23 -5 15 -9.4 72 72 S 8 13 30.13 1020 10 16 N/A
11:53 pm 23:53 Clear 24 -4.4 15 -9.4 68 68 SSE 9 15 30.09 1019 10 16 N/A

Powered by AerisWeather